Location: Gouy
(50.0008°N, 3.2556°E)
Time: 07:23:57
(UTC+00:00)

Cosmos 1703 Rocket - Pass Details

Date: 16 October 2024
Orbit: 600 x 629 km, 82.5° (Epoch: 03 November)

Event Time Altitude Azimuth Distance (km) Brightness Sun altitude
Rises 17:36:56 0° 347° (NNW) 2,878 7.1 -7.8°
Reaches altitude 10° 17:39:10 10° 345° (NNW) 1,965 6.3 -8.2°
Maximum altitude 17:43:28 65° 264° (W) 666 4.0 -8.9°
Drops below altitude 10° 17:47:43 10° 182° (S) 1,939 6.2 -9.5°
Sets 17:49:55 0° 180° (S) 2,836 7.0 -9.9°
